[[{"header":{"parameterUnit":"m.s-1","parameterCategory":1,"la1":30.2991,"la2":30.254,"lo1":-89.0895,"lo2":-89.0444,"dy":0.0017,"dx":0.0017,"nx":28,"ny":28,"refTime":"2025-08-23T09:00:00:Z","depth":0,"parameterNumber":2,"parameterNumberName":"U-component_of_WINDS"},"data":[0,0,0,0,0,0,0,0,0,0,0,0,0,0,0,0,0,0,0,0,0,0,0,0,0,0,0,0,0,0,0,0,0,0,0,0,0,0,0,0,0,0,0,0,0,0,0,0,0,0,0,0,0,0,0,0,0,0,0.0882,0.0882,0,0.0865,0.0865,0.0864,0.087,0.087,0.0871,0.0871,0.0855,0.0854,0.0853,0,0,0,0,0,0,0,0,0,0,0,0,0,0.092,0.0919,0.0882,0.0882,0.0881,0.0865,0.0865,0.0864,0.087,0.087,0.0871,0.0871,0.0855,0.0854,0.0853,0,0,0,0,0,0,0,0,0,0,0,0,0,0.0903,0.0919,0.0882,0.0882,0.0882,0.0865,0.0865,0.0864,0.087,0.087,0.0871,0.0871,0.0855,0.0854,0.0853,0.0835,0,0,0.0849,0.0849,0,0,0,0,0,0,0,0,0.0904,0.0902,0.0882,0.0882,0.0882,0.087,0.0872,0.0854,0.087,0.0874,0.0871,0.0872,0.0859,0.0858,0.0854,0.0834,0.0833,0.0849,0.0849,0.0848,0.0848,0,0,0,0,0,0,0,0.0905,0.0903,0.0875,0.0882,0.0882,0.0883,0.0882,0.0869,0.0864,0.0874,0.0874,0.0872,0.0859,0.0855,0.0853,0.0833,0.0849,0.0848,0.0848,0.0847,0.0799,0.0798,0,0,0,0,0,0,0.0906,0.0903,0.0876,0.0875,0.0894,0.0882,0.088,0.0873,0.0864,0.0863,0.0872,0.0873,0.0856,0.0855,0.0853,0.0831,0.0848,0.0847,0.0846,0.0799,0.0799,0.0798,0,0,0,0,0,0,0.0907,0.0904,0.0876,0.0889,0.0886,0.0881,0.0873,0.0873,0.0868,0.0863,0.0862,0.0868,0.0857,0.0854,0.0839,0.0831,0.0846,0.0845,0.08,0.0799,0.0798,0.0788,0,0,0,0,0,0,0.0908,0.0904,0.0897,0.0889,0.0885,0.0863,0.0873,0.0872,0.0866,0.0867,0.0859,0.0858,0.0857,0.0841,0.0838,0.0829,0.0845,0.0801,0.08,0.0799,0.0789,0.0787,0.0785,0,0,0,0,0,0.091,0.0895,0.0897,0.0893,0.0876,0.0862,0.086,0.0859,0.0865,0.0858,0.0855,0.0858,0.0832,0.0839,0.0836,0.0827,0.0801,0.08,0.0799,0.079,0.0788,0.0785,0,0,0,0,0,0,0.0903,0.0894,0.0896,0.0878,0.0871,0.0863,0.0854,0.0856,0.0848,0.0849,0.0848,0.0847,0.0831,0.0828,0.0836,0.0809,0.0818,0.0816,0.0812,0.081,0.0808,0.0809,0.0844,0,0,0,0,0,0.0899,0.0888,0.0881,0.0866,0.0863,0.0859,0.0853,0.0853,0.0846,0.0843,0.0838,0.0832,0.0822,0.0816,0.0806,0.0789,0.0787,0.0781,0.0779,0.0777,0.0776,0.0766,0.0764,0.0794,0.0794,0.0794,0,0,0.0891,0.0885,0.0879,0.0865,0.0859,0.0849,0.0857,0.0845,0.0837,0.0841,0.0827,0.0823,0.0816,0.0799,0.0792,0.0796,0.0767,0.0776,0.0774,0.0774,0.0765,0.0762,0.0759,0.0793,0.0793,0.0793,0,0,0.0872,0.0866,0.0853,0.0847,0.0839,0.0837,0.0834,0.0826,0.0823,0.0809,0.0812,0.0803,0.0786,0.0781,0.0776,0.0754,0.0757,0.0751,0.0741,0.0732,0.073,0.0727,0.072,0.0718,0.075,0.075,0.075,0,0.0864,0.0847,0.0846,0.0834,0.0828,0.0831,0.0818,0.0813,0.0802,0.0798,0.0803,0.0782,0.0777,0.076,0.0754,0.075,0.0747,0.0752,0.073,0.0728,0.0726,0.0719,0.0716,0.0749,0.0749,0.0749,0.0749,0,0.0838,0.0827,0.0817,0.0806,0.0799,0.0787,0.0784,0.0777,0.0778,0.0775,0.0761,0.0755,0.0744,0.074,0.0741,0.0723,0.0726,0.073,0.0738,0.0722,0.0716,0.0713,0.0748,0.0748,0.0749,0.0749,0,0,0.0814,0.0802,0.0799,0.0794,0.0785,0.0776,0.0764,0.0754,0.0748,0.0741,0.0731,0.0717,0.0721,0.0715,0.0715,0.0707,0.0691,0.0712,0.0712,0.0709,0.0671,0.0668,0.0665,0.0693,0.0692,0.0692,0.0672,0,0.0794,0.0773,0.0771,0.0752,0.0742,0.0744,0.0734,0.0727,0.0725,0.0716,0.0713,0.0703,0.0709,0.0705,0.0698,0.0694,0.0683,0.0696,0.0684,0.0684,0.0686,0.0662,0.0659,0.064,0.067,0.0669,0.0669,0,0.0768,0.0759,0.0739,0.0731,0.0727,0.0718,0.0708,0.07,0.0692,0.0691,0.0685,0.0686,0.0674,0.0682,0.0666,0.0675,0.067,0.0667,0.0667,0.0666,0.0675,0.0661,0.0635,0.0632,0.0665,0.0665,0.0665,0,0.0753,0.0736,0.0722,0.0718,0.0708,0.0702,0.0698,0.0691,0.0685,0.0677,0.0673,0.0664,0.0659,0.0651,0.065,0.0656,0.0634,0.0642,0.0633,0.0633,0.0628,0.0629,0.0602,0.0625,0.0625,0.0625,0.0625,0,0.0731,0.0719,0.0715,0.0706,0.0692,0.0691,0.0677,0.0674,0.0668,0.0659,0.0661,0.0652,0.0651,0.0642,0.0641,0.0628,0.0626,0.0624,0.0624,0.0624,0.0625,0.0621,0.0623,0.0624,0.0624,0.0624,0.0625,0,0.0712,0.0709,0.0694,0.0686,0.0684,0.0674,0.0668,0.0659,0.0657,0.0645,0.0643,0.0639,0.0628,0.0626,0.0614,0.0614,0.0598,0.0599,0.0601,0.0601,0.0592,0.0593,0.0562,0.0558,0.0583,0.0583,0.0583,0,0.0699,0.0689,0.068,0.0674,0.067,0.066,0.0653,0.0652,0.0645,0.0637,0.063,0.0619,0.0611,0.0595,0.0591,0.0582,0.0583,0.0573,0.0582,0.0583,0.0584,0.0584,0.0584,0.0572,0.0571,0.0571,0.0571,0,0.0675,0.0674,0.0665,0.0655,0.0647,0.064,0.0633,0.0627,0.0625,0.0618,0.0607,0.0601,0.0589,0.0579,0.057,0.0566,0.0568,0.0568,0.0565,0.0566,0.0567,0.0566,0.0596,0.0569,0.0569,0.0569,0.0569,0.0569,0.0659,0.065,0.0643,0.0633,0.0627,0.062,0.0612,0.0608,0.0599,0.0589,0.0589,0.0577,0.0571,0.0559,0.0554,0.0546,0.0549,0.0545,0.0544,0.0543,0.0543,0.0568,0.0544,0.0544,0.0544,0.0544,0.0544,0,0.0636,0.0631,0.0621,0.0611,0.0603,0.0605,0.0597,0.0591,0.058,0.0574,0.0566,0.0554,0.0544,0.054,0.0531,0.0524,0.0525,0.0522,0.0523,0.0522,0.054,0.0543,0.0522,0.0522,0.0522,0.0522,0.0522,0.0522,0.0623,0.0609,0.0607,0.059,0.0586,0.0574,0.0569,0.0563,0.0558,0.0544,0.0536,0.0533,0.0528,0.0518,0.051,0.0509,0.0505,0.0502,0.0501,0.0518,0.0521,0.0523,0.0526,0.0501,0.0501,0.0484,0.0484,0.0484]},{"header":{"parameterUnit":"m.s-1","parameterCategory":1,"la1":30.2991,"la2":30.254,"lo1":-89.0895,"lo2":-89.0444,"dy":0.0017,"dx":0.0017,"nx":28,"ny":28,"refTime":"2025-08-23T09:00:00:Z","depth":0,"parameterNumber":3,"parameterNumberName":"V-component_of_WINDS"},"data":[0,0,0,0,0,0,0,0,0,0,0,0,0,0,0,0,0,0,0,0,0,0,0,0,0,0,0,0,0,0,0,0,0,0,0,0,0,0,0,0,0,0,0,0,0,0,0,0,0,0,0,0,0,0,0,0,0,0,-1.8653,-1.8653,0,-1.8703,-1.8704,-1.8704,-1.8683,-1.8681,-1.868,-1.8679,-1.873,-1.8733,-1.8735,0,0,0,0,0,0,0,0,0,0,0,0,0,-1.8539,-1.8541,-1.8653,-1.8653,-1.8654,-1.8703,-1.8704,-1.8704,-1.8683,-1.8681,-1.868,-1.8678,-1.8729,-1.8732,-1.8735,0,0,0,0,0,0,0,0,0,0,0,0,0,-1.8588,-1.8541,-1.8653,-1.8649,-1.8649,-1.8703,-1.8704,-1.8704,-1.8683,-1.8681,-1.8679,-1.8678,-1.8728,-1.8732,-1.8736,-1.8795,0,0,-1.8747,-1.8749,0,0,0,0,0,0,0,0,-1.8586,-1.8593,-1.8649,-1.8649,-1.865,-1.8685,-1.8682,-1.8735,-1.8684,-1.867,-1.8679,-1.8677,-1.8716,-1.8721,-1.8735,-1.8798,-1.88,-1.8747,-1.875,-1.8751,-1.8752,0,0,0,0,0,0,0,-1.8582,-1.859,-1.8673,-1.865,-1.865,-1.8645,-1.865,-1.8692,-1.8703,-1.8671,-1.867,-1.8676,-1.8716,-1.8731,-1.8736,-1.8801,-1.8747,-1.8751,-1.8753,-1.8754,-1.8917,-1.8919,0,0,0,0,0,0,-1.8579,-1.8588,-1.8671,-1.8674,-1.8613,-1.8649,-1.8654,-1.8675,-1.8702,-1.8705,-1.8678,-1.8675,-1.8725,-1.8731,-1.8737,-1.881,-1.8751,-1.8755,-1.8757,-1.8915,-1.8918,-1.892,0,0,0,0,0,0,-1.8576,-1.8586,-1.8669,-1.863,-1.8641,-1.8653,-1.8676,-1.8677,-1.8692,-1.8707,-1.8709,-1.8691,-1.8724,-1.8732,-1.8781,-1.8812,-1.8757,-1.876,-1.8913,-1.8916,-1.8919,-1.8956,0,0,0,0,0,0,-1.8573,-1.8586,-1.8608,-1.8631,-1.8643,-1.8712,-1.8678,-1.868,-1.8698,-1.8695,-1.872,-1.8722,-1.8723,-1.8776,-1.8785,-1.8816,-1.8763,-1.891,-1.8914,-1.8918,-1.8952,-1.896,-1.8966,0,0,0,0,0,-1.8569,-1.8616,-1.8609,-1.862,-1.8671,-1.8714,-1.8721,-1.8721,-1.8701,-1.8724,-1.8734,-1.8721,-1.8807,-1.8781,-1.8791,-1.8824,-1.8908,-1.8913,-1.8918,-1.8948,-1.8958,-1.8966,0,0,0,0,0,0,-1.8596,-1.8619,-1.8612,-1.8668,-1.8689,-1.871,-1.8739,-1.8731,-1.8758,-1.8754,-1.8754,-1.876,-1.8811,-1.8822,-1.8793,-1.8884,-1.8854,-1.8861,-1.8875,-1.8884,-1.8891,-1.8887,-1.8766,0,0,0,0,0,-1.8608,-1.8641,-1.8659,-1.8707,-1.8718,-1.8727,-1.8745,-1.8744,-1.8766,-1.8775,-1.8789,-1.8811,-1.8843,-1.8864,-1.8894,-1.8953,-1.8959,-1.898,-1.8988,-1.8993,-1.9,-1.9034,-1.9044,-1.8935,-1.8935,-1.8935,0,0,-1.8634,-1.8651,-1.8671,-1.8713,-1.8729,-1.8763,-1.8735,-1.8772,-1.8797,-1.8781,-1.8829,-1.884,-1.8864,-1.8919,-1.8944,-1.893,-1.9031,-1.8999,-1.9004,-1.9007,-1.9039,-1.905,-1.9059,-1.8938,-1.8938,-1.8937,0,0,-1.8699,-1.8714,-1.8756,-1.8774,-1.8799,-1.8805,-1.8815,-1.8838,-1.8845,-1.8893,-1.8882,-1.8912,-1.8967,-1.8986,-1.9002,-1.9076,-1.9066,-1.9085,-1.9124,-1.9157,-1.9165,-1.9173,-1.92,-1.921,-1.9091,-1.9092,-1.9092,0,-1.8727,-1.8779,-1.8779,-1.8818,-1.8837,-1.8824,-1.8867,-1.8883,-1.8917,-1.8931,-1.8915,-1.8984,-1.9,-1.906,-1.9078,-1.9091,-1.9104,-1.9083,-1.9164,-1.9171,-1.9179,-1.9205,-1.9215,-1.9094,-1.9094,-1.9093,-1.9093,0,-1.8814,-1.885,-1.888,-1.8915,-1.8937,-1.8977,-1.8984,-1.9007,-1.9004,-1.9012,-1.9062,-1.908,-1.9114,-1.9128,-1.9125,-1.9189,-1.9179,-1.9163,-1.9134,-1.9191,-1.9216,-1.9226,-1.9097,-1.9096,-1.9096,-1.9095,0,0,-1.8896,-1.8931,-1.8942,-1.8958,-1.8986,-1.9014,-1.9054,-1.9088,-1.9109,-1.9133,-1.9167,-1.9214,-1.9201,-1.9219,-1.9219,-1.9247,-1.9306,-1.9228,-1.9229,-1.9243,-1.9379,-1.9391,-1.9403,-1.93,-1.9302,-1.9303,-1.9377,0,-1.8964,-1.9035,-1.9037,-1.9102,-1.9136,-1.9125,-1.9161,-1.9182,-1.9191,-1.9221,-1.923,-1.9264,-1.9242,-1.9254,-1.9282,-1.9293,-1.9334,-1.9288,-1.9333,-1.9334,-1.9328,-1.9415,-1.9428,-1.9497,-1.9387,-1.9388,-1.9389,0,-1.9052,-1.908,-1.9149,-1.9174,-1.9188,-1.922,-1.9252,-1.9281,-1.9305,-1.931,-1.9332,-1.9327,-1.9369,-1.9338,-1.9397,-1.9366,-1.9384,-1.9393,-1.9396,-1.94,-1.9366,-1.9424,-1.9519,-1.953,-1.9404,-1.9403,-1.9402,0,-1.9107,-1.9162,-1.9211,-1.9225,-1.9254,-1.9277,-1.9291,-1.9313,-1.9334,-1.9362,-1.9376,-1.9408,-1.9426,-1.9452,-1.9457,-1.9433,-1.9516,-1.9485,-1.9522,-1.9522,-1.954,-1.9539,-1.9641,-1.955,-1.955,-1.955,-1.955,0,-1.9183,-1.9226,-1.9236,-1.9266,-1.9314,-1.9316,-1.9364,-1.9376,-1.9396,-1.9429,-1.9421,-1.9452,-1.9455,-1.9488,-1.9491,-1.954,-1.9548,-1.9553,-1.9554,-1.9555,-1.9554,-1.9567,-1.9563,-1.9553,-1.9552,-1.9551,-1.9551,0,-1.9252,-1.9261,-1.9314,-1.9338,-1.9345,-1.938,-1.94,-1.943,-1.9438,-1.9479,-1.9489,-1.9502,-1.954,-1.9547,-1.9591,-1.9593,-1.9652,-1.9647,-1.9644,-1.9644,-1.968,-1.9677,-1.9795,-1.9811,-1.9709,-1.971,-1.9711,0,-1.9301,-1.9334,-1.9362,-1.9384,-1.9399,-1.9433,-1.9455,-1.9458,-1.9481,-1.9512,-1.9538,-1.9575,-1.9604,-1.9665,-1.9679,-1.9713,-1.971,-1.9748,-1.9715,-1.9715,-1.9712,-1.971,-1.9714,-1.9755,-1.9756,-1.9757,-1.9758,0,-1.9386,-1.9389,-1.9421,-1.9455,-1.9481,-1.9507,-1.9532,-1.9551,-1.9557,-1.9584,-1.9622,-1.9646,-1.9691,-1.9728,-1.9763,-1.9777,-1.9769,-1.9768,-1.9779,-1.978,-1.9778,-1.9781,-1.9663,-1.9766,-1.9765,-1.9764,-1.9764,-1.9764,-1.9448,-1.9477,-1.9502,-1.9538,-1.9558,-1.9582,-1.9611,-1.9623,-1.9656,-1.9693,-1.9693,-1.9736,-1.9761,-1.9806,-1.9823,-1.9857,-1.9844,-1.9859,-1.9863,-1.9867,-1.9871,-1.9772,-1.9863,-1.9862,-1.9862,-1.9862,-1.9862,0,-1.9534,-1.955,-1.9583,-1.9619,-1.9648,-1.9638,-1.9666,-1.969,-1.9728,-1.9752,-1.9782,-1.9827,-1.9863,-1.988,-1.9916,-1.994,-1.9938,-1.995,-1.9949,-1.9952,-1.9879,-1.9867,-1.9951,-1.9951,-1.9951,-1.9951,-1.9951,-1.9951,-1.9582,-1.9632,-1.9638,-1.9698,-1.9714,-1.9756,-1.9773,-1.9795,-1.9815,-1.9866,-1.9896,-1.9907,-1.9929,-1.9966,-2.0,-2.0004,-2.0018,-2.0032,-2.0034,-1.9966,-1.9957,-1.9948,-1.9937,-2.0035,-2.0035,-2.0105,-2.0105,-2.0106]}]]